{"data":{"norad_id":61667,"epoch":"2026-05-25T02:34:07.538016Z","epoch_age_seconds":72596,"freshness":"FRESH","line1":"1 61667U 24193G   26145.10703169 -.00000354  00000+0  15486-6 0  9992","line2":"2 61667  53.1607  96.2558 0001166 101.3595 258.7537 15.30189500 88222","mean_motion":15.301895,"eccentricity":0.0001166,"inclination_deg":53.1607,"raan_deg":96.2558,"arg_perigee_deg":101.3595,"mean_anomaly_deg":258.7537,"bstar":1.5486e-7,"rev_number":8822,"period_min":94.105991447465,"perigee_km":474.4473161991,"apogee_km":476.04552521281,"semimajor_km":6853.383420706,"source":"CELESTRAK","updated_at":"2026-05-25T13:38:19.433025Z"}}